Etusivu
METAR-TAF:

METAR-TAF

Lentoasemat :

Little Falls/Morrison County Airport (Lindbergh Field)

Little Falls, Minnesota, Yhdysvallat

Leveyspiiri: 45-57N, Pituuspiiri: 094-21W, korkeus merenpinnasta: 342 m

Tämänhetkinen sää

Tämä raportti tehtiin 51 minuuttia sitten, kello 19.59 UTC
tyyntä
Lämpötila -6°C
Kosteus 58%
Ilmanpaine 1025 hPa
Näkyvyys: 16.1 km
Pilvistä 5000 ft:n korkeudessa

METAR: KLXL 261959Z AUTO 00000KT 10SM OVC050 M06/M13 A3026 RMK AO2

Aika: 14:50 (20:50 UTC)


TAF: puuttuu

Säähavainnot ja -ennusteet yli 4000 lentoasemalta (METAR- ja TAF-raportit).

Käytössä olevat sääasemat on merkitty karttaan keltaisilla ja punaisilla pisteillä.

Aseta hiiri pisteen päälle nähdäksesi sääaseman nimen.

Klikkaa sitten nähdäksesi säähavainnot ja -ennusteet.

Kartan vaihtaminen: klikkaa mustalla rastilla varustettuja vihreitä pisteitä, niin voit zoomata sisään; viivalla varustettua vihreää pistettä, niin voit zoomata ulos tai vihreitä nuolia, niin pääset viereisille kartoille.


METAR-TAF: